ESSD

Details ICAO ESSD (BLE)
Name Borlange
Region Sweden
Timezone Europe/Stockholm (UTC+2.0)
Plans Departing 15
Arriving 24
Stats Elevation 503 ft / 153 m (AMSL)
Location 60.424422° 15.505841°
Runways 2
Magnetic Variation 5.315° E
Sunrise 2018-05-22 02:03:01 UTC / 2018-05-22 04:03:01 Local
Sunset 2018-05-22 19:49:07 UTC / 2018-05-22 21:49:07 Local
Advertisement - Login to hide

Runways

ID Width Length Bearing (true) Bearing (mag) Surface Threshold Offset Overrun Length
12 163 ft / 50 m 2,362 ft / 720 m 120.00° 114.68° Grass 0 ft / 0 m 0 ft / 0 m
14 148 ft / 45 m 7,561 ft / 2,305 m 132.46° 127.14° Asphalt 0 ft / 0 m 210 ft / 64 m
30 163 ft / 50 m 2,362 ft / 720 m 300.00° 294.68° Grass 0 ft / 0 m 0 ft / 0 m
32 148 ft / 45 m 7,561 ft / 2,305 m 312.49° 307.17° Asphalt 0 ft / 0 m 113 ft / 34 m

Approach Navaids

Runway Type Ident Frequency Range Bearing (true) Bearing (mag) Slope Elevation
32 Localiser SD 109.50 MHz 18 nm / 33 km 312.44° 307.13° - 503 ft / 153 m (AMSL)
32 Glidescope SD 109.50 MHz 10 nm / 19 km 312.48° 307.16° 3.00° 503 ft / 153 m (AMSL)

Map

Weather


0- 5 10 15 20 25 30 35+ Temperature / ° C

Clouds and Precipitation
Forecast for 2018-05-22 06:00 UTC. Updated 3 hours ago

Ground ~20,000 ft ~40,000 ft Winds

METAR

ESSD 220820Z 08004KT CAVOK 19/08 Q1020

TAF

Not found

Frequencies

Tower 123.30 MHz TWR
Tower 127.30 MHz TWR
Warning: Do not use this data for real-world aviation or navigation. No guarantee of current accuracy is given.